Prague, Czech Republic

8:56 AM CEST on August 29, 2016 (GMT +0200)
Ruzyne

Weather History for LKPR - June, 2012

Change the Weather History Date:

Wednesday, June 20, 2012

  Actual Average Record
Temperature  
Mean Temperature 72 °F -  
Max Temperature 84 °F 73 °F 91 °F (2013)
Min Temperature 60 °F 52 °F 46 °F (2001)
Cooling Degree Days 7    
Growing Degree Days 22 (Base 50)    
Moisture  
Dew Point 63 °F    
Average Humidity 77    
Maximum Humidity 94    
Minimum Humidity 46    
Precipitation  
Precipitation 0.08 in 0.09 in - ()
Sea Level Pressure  
Sea Level Pressure 29.94 in    
Wind  
Wind Speed 5 mph ()    
Max Wind Speed 25 mph    
Max Gust Speed 39 mph    
Visibility 6.8 miles    
Events Rain , Thunderstorm    
Averages and records for this station are not official NWS values.
T = Trace of Precipitation, MM = Missing Value Source: Averaged Metar Reports

Daily Weather History Graph

Daily Weather History Graph

Search for Another Location

Airport or City:

Trip Planner

Search our weather history database for the weather conditions in past years. The results will help you decide how hot, cold, wet, or windy it might be!

Date:

Astronomy

Jun. 20, 2012 Rise Set
Actual Time 4:52 AM CEST 9:16 PM CEST
Civil Twilight 4:08 AM CEST 10:01 PM CEST
Nautical Twilight 3:01 AM CEST 11:07 PM CEST
Astronomical Twilight 1:36 AM CEST 12:32 AM CEST
Moon 5:42 AM CEST (6/20) 9:41 PM CEST (6/20)
Length of Visible Light 17h 53m
Length of Day
16h 23m
New Moon, 1% of the Moon is Illuminated
Jun 20
New Moon
Jun 27
First Quarter
Jul 3
Full
Jul 11
Last Quarter
Jul 19
New

Hourly Weather History & Observations

Time (CEST) Temp. Heat Index Dew Point Humidity Pressure Visibility Wind Dir Wind Speed Gust Speed Precip Events Conditions
12:00 AM 64.4 °F - 57.2 °F 77% 30.04 in - East 4.6 mph - N/A   Clear
12:30 AM 64.4 °F - 57.2 °F 77% 30.04 in - ENE 3.5 mph - N/A   Clear
1:00 AM 64.4 °F - 57.2 °F 77% 30.01 in - East 4.6 mph - N/A   Clear
1:30 AM 62.6 °F - 57.2 °F 82% 30.01 in - NNE 5.8 mph - N/A   Clear
2:00 AM 62 °F - 57 °F 77% 29.99 in 22 mi ENE 6.7 mph - -   Scattered Clouds
2:00 AM 62.6 °F - 57.2 °F 82% 30.01 in - ENE 4.6 mph - N/A   Clear
2:30 AM 62.6 °F - 57.2 °F 82% 30.01 in - ENE 4.6 mph - N/A   Clear
3:00 AM 60.8 °F - 57.2 °F 88% 29.98 in - NNE 4.6 mph - N/A   Clear
3:30 AM 62.6 °F - 57.2 °F 82% 29.98 in - NNE 4.6 mph - N/A   Clear
4:00 AM 62.6 °F - 57.2 °F 82% 29.95 in - NNE 4.6 mph - N/A   Clear
4:30 AM 62.6 °F - 57.2 °F 82% 29.95 in - WNW 3.5 mph - N/A   Clear
5:00 AM 60.8 °F - 57.2 °F 88% 29.95 in - WNW 2.3 mph - N/A   Clear
5:30 AM 60.8 °F - 57.2 °F 88% 29.98 in - NW 5.8 mph - N/A   Clear
5:45 AM 60.8 °F - 59.0 °F 94% 29.95 in 6.2 mi North 4.6 mph - N/A Rain Light Rain
6:00 AM 60.8 °F - 59.0 °F 94% 29.98 in 6.2 mi NNW 5.8 mph - N/A Rain Light Rain
6:30 AM 60.8 °F - 59.0 °F 94% 29.98 in 6.2 mi NW 9.2 mph - N/A   Partly Cloudy
7:00 AM 62.6 °F - 59.0 °F 88% 29.98 in 6.2 mi NW 9.2 mph - N/A Rain Light Rain
7:30 AM 62.6 °F - 59.0 °F 88% 29.95 in - NNE 8.1 mph - N/A   Clear
7:34 AM 62.6 °F - 59.0 °F 88% 29.95 in - NNE 8.1 mph - N/A   Clear
8:00 AM 65 °F - 60 °F 81% 29.94 in 19 mi NNE 4.5 mph - - Rain Light Rain
8:00 AM 66.2 °F - 60.8 °F 83% 29.98 in - NNE 4.6 mph - N/A   Clear
8:14 AM 64.4 °F - 59.0 °F 83% 29.98 in 6.2 mi Variable 2.3 mph - N/A Thunderstorm Partly Cloudy
8:30 AM 64.4 °F - 59.0 °F 83% 29.98 in 6.2 mi SSE 5.8 mph - N/A Thunderstorm Mostly Cloudy
9:00 AM 66.2 °F - 60.8 °F 83% 29.95 in 6.2 mi NNE 4.6 mph - N/A   Partly Cloudy
9:30 AM 68.0 °F - 60.8 °F 78% 29.98 in - Variable 1.2 mph - N/A   Clear
10:00 AM 69.8 °F - 60.8 °F 73% 29.98 in - Variable 2.3 mph - N/A   Clear
10:30 AM 71.6 °F - 62.6 °F 73% 29.98 in - Variable 2.3 mph - N/A   Clear
11:00 AM 73.4 °F - 64.4 °F 73% 29.95 in - SSW 3.5 mph - N/A   Clear
11:30 AM 77.0 °F - 64.4 °F 65% 29.95 in - WSW 3.5 mph - N/A   Clear
12:00 PM 78.8 °F - 66.2 °F 65% 29.95 in - WSW 3.5 mph - N/A   Clear
12:30 PM 80.6 °F 82.7 °F 66.2 °F 61% 29.95 in - Variable 2.3 mph - N/A   Clear
1:00 PM 80.6 °F 82.7 °F 66.2 °F 61% 29.95 in 6.2 mi SSW 4.6 mph - N/A   Partly Cloudy
1:30 PM 80.6 °F 82.3 °F 64.4 °F 58% 29.95 in 6.2 mi WSW 5.8 mph - N/A   Scattered Clouds
2:00 PM 82 °F - 64 °F 46% 29.87 in 16 mi NNW 4.5 mph - -   Partly Cloudy
2:00 PM 82.4 °F 83.9 °F 64.4 °F 54% 29.92 in 6.2 mi NNW 3.5 mph - N/A   Scattered Clouds
2:30 PM 82.4 °F 83.9 °F 64.4 °F 54% 29.92 in 6.2 mi West 5.8 mph - N/A   Partly Cloudy
3:00 PM 82.4 °F 82.9 °F 60.8 °F 48% 29.92 in 6.2 mi NW 8.1 mph - N/A   Scattered Clouds
3:30 PM 82.4 °F 83.4 °F 62.6 °F 51% 29.92 in 6.2 mi WSW 3.5 mph - N/A   Scattered Clouds
4:00 PM 82.4 °F 82.9 °F 60.8 °F 48% 29.92 in 6.2 mi NNW 8.1 mph - N/A   Scattered Clouds
4:30 PM 78.8 °F - 64.4 °F 61% 29.92 in 6.2 mi NW 15.0 mph - N/A   Mostly Cloudy
4:51 PM 78.8 °F - 66.2 °F 65% 29.92 in 6.2 mi NNW 9.2 mph - N/A Rain Light Rain Showers
5:00 PM 77.0 °F - 66.2 °F 69% 29.92 in 6.2 mi NW 8.1 mph - N/A Rain Rain Showers
5:09 PM 77.0 °F - 68.0 °F 74% 29.92 in 6.2 mi NW 9.2 mph - N/A   Mostly Cloudy
5:30 PM 78.8 °F - 66.2 °F 65% 29.89 in 6.2 mi North 5.8 mph - N/A   Scattered Clouds
6:00 PM 80.6 °F 82.7 °F 66.2 °F 61% 29.89 in 6.2 mi NE 4.6 mph - N/A   Partly Cloudy
6:30 PM 78.8 °F - 66.2 °F 65% 29.89 in 6.2 mi East 5.8 mph - N/A   Scattered Clouds
7:00 PM 78.8 °F - 64.4 °F 61% 29.89 in 6.2 mi NE 5.8 mph - N/A Thunderstorm Thunderstorm
7:20 PM 77.0 °F - 64.4 °F 65% 29.89 in 6.2 mi NNE 6.9 mph - N/A Rain , Thunderstorm Light Thunderstorms and Rain
7:30 PM 75.2 °F - 66.2 °F 73% 29.86 in 6.2 mi North 8.1 mph - N/A Rain , Thunderstorm Light Thunderstorms and Rain
8:00 PM 72 °F - 69 °F 85% 29.83 in 12 mi WNW 4.5 mph - - Rain , Thunderstorm Thunderstorms and Rain
8:00 PM 71.6 °F - 68.0 °F 88% 29.89 in 6.2 mi WNW 5.8 mph - N/A Rain , Thunderstorm Light Thunderstorms and Rain
8:15 PM 71.6 °F - 68.0 °F 88% 29.89 in 6.2 mi Variable 2.3 mph - N/A Rain Light Rain Showers
8:30 PM 71.6 °F - 68.0 °F 88% 29.89 in 6.2 mi Variable 2.3 mph - N/A Rain Light Rain Showers
8:44 PM 71.6 °F - 68.0 °F 88% 29.89 in 6.2 mi West 4.6 mph - N/A   Partly Cloudy
9:00 PM 71.6 °F - 68.0 °F 88% 29.89 in 6.2 mi Variable 2.3 mph - N/A   Partly Cloudy
9:30 PM 71.6 °F - 68.0 °F 88% 29.89 in 6.2 mi Variable 2.3 mph - N/A   Partly Cloudy
9:39 PM 69.8 °F - 66.2 °F 88% 29.89 in 6.2 mi NNE 3.5 mph - N/A Rain Light Rain Showers
10:00 PM 73.4 °F - 68.0 °F 83% 29.89 in 6.2 mi NE 3.5 mph - N/A Rain Light Rain Showers
10:30 PM 73.4 °F - 68.0 °F 83% 29.89 in 6.2 mi NE 4.6 mph - N/A Rain , Thunderstorm Light Rain Showers
10:40 PM 71.6 °F - 68.0 °F 88% 29.89 in 5.6 mi Variable 2.3 mph - N/A Rain , Thunderstorm Rain Showers
10:53 PM 69.8 °F - 68.0 °F 94% 29.92 in 5.0 mi SSW 25.3 mph 39.1 mph N/A Rain , Thunderstorm Rain Showers
11:00 PM 66.2 °F - 62.6 °F 88% 29.92 in 3.7 mi SW 25.3 mph 39.1 mph N/A Rain , Thunderstorm Thunderstorms and Rain
11:30 PM 64.4 °F - 62.6 °F 94% 29.92 in 6.2 mi SW 21.9 mph - N/A Rain , Thunderstorm Light Thunderstorms and Rain